Location: *
(49.5667°N, 1.3667°W)
Time: 13:38:04
(UTC+00:00)

CZ-2C R/B - Pass Details

Date: 20 September 2019
Orbit: 705 x 907 km, 98.1° (Epoch: 18 October)

Event Time Altitude Azimuth Distance (km) Brightness Sun altitude
Exits shadow 19:04:56 13° 108° (ESE) 2,235 4.7 -9.9°
Maximum altitude 19:08:38 25° 59° (ENE) 1,635 4.3 -10.4°
Drops below altitude 10° 19:13:05 10° 6° (N) 2,517 5.8 -11.1°
Sets 19:15:54 0° 354° (N) 3,487 6.7 -11.6°
